Volver al catálogo

SL-24 R/B

ActivoPO
NORAD 39228·ROCKET BODY·🇷🇺 Russia

Lanzado Aug 22, 2013 desde Dombarovsky

Loading…

Próximos Pases (próximas 24 horas)

TLE

ActualizadoSource: Space-Track

Época: Sep 14, 2026, 00:36 UTC

1 39228U 13042B   26257.02507157  .00000177  00000-0  52129-4 0  9991
2 39228  97.4987  90.2233 0446534 292.6695  62.7851 14.08833044666815

Sigue SL-24 R/B en tiempo real con AllMySat

Download on the App Store